Location: Balsareny
(41.8670°N, 1.8830°E)
Time: 03:48:46
(UTC+01:00)

Hubble Space Telescope - Visible Passes

Search period start: 27 February 2024 00:00
Search period end: 08 March 2024 00:00
Orbit: 516 x 519 km, 28.5° (Epoch: 26 February)

Date Brightness Start Highest point End Pass type
(mag) Time Alt. Az. Time Alt. Az. Time Alt. Az.
27 Feb 3.1 20:14:00 10° SSW 20:15:30 12° S 20:16:04 11° SSE visible
28 Feb 3.1 19:56:26 10° SSW 19:57:59 12° S 19:59:32 10° SSE visible
29 Feb 3.1 19:38:54 10° SSW 19:40:28 12° S 19:42:02 10° SSE visible
01 Mar 3.2 19:21:24 10° SSW 19:22:56 12° S 19:24:28 10° SSE visible
